Radiation Dose at Monitoring Post of Fukushima Daini Nuclear Power Station
Date,Time,MP-1(microSv/h),MP-2(microSv/h),MP-3(microSv/h),MP-4(microSv/h),MP-5(microSv/h),MP-6(microSv/h),MP-7(microSv/h),Wind Direction,Wind Velocity(m/s),Rain
2020/11/26,00:00,0.175,0.157,0.257,0.243,0.238,0.140,0.084,north-northwest,0.9,No
2020/11/26,00:10,0.176,0.156,0.257,0.243,0.238,0.141,0.084,north-northeast,1.2,No
2020/11/26,00:20,0.175,0.156,0.257,0.243,0.238,0.141,0.084,north,1.5,No
2020/11/26,00:30,0.174,0.157,0.256,0.243,0.238,0.140,0.084,north-northwest,1.1,No
2020/11/26,00:40,0.176,0.156,0.257,0.245,0.238,0.141,0.084,northwest,2.0,No
2020/11/26,00:50,0.174,0.157,0.256,0.244,0.237,0.140,0.084,north-northwest,2.4,No
2020/11/26,01:00,0.174,0.156,0.258,0.244,0.238,0.141,0.085,north-northwest,2.4,No
2020/11/26,01:10,0.175,0.157,0.257,0.244,0.237,0.140,0.084,north-northwest,2.6,No
2020/11/26,01:20,0.175,0.157,0.257,0.244,0.238,0.141,0.085,north,2.8,No
2020/11/26,01:30,0.175,0.157,0.258,0.244,0.239,0.140,0.084,north-northeast,2.1,No
2020/11/26,01:40,0.174,0.157,0.256,0.243,0.239,0.140,0.085,north,1.3,No
2020/11/26,01:50,0.176,0.156,0.257,0.244,0.239,0.140,0.084,northwest,1.4,No
2020/11/26,02:00,0.176,0.157,0.257,0.244,0.239,0.141,0.084,northwest,1.1,No
2020/11/26,02:10,0.174,0.156,0.257,0.243,0.239,0.140,0.084,east-northeast,1.6,No
2020/11/26,02:20,0.175,0.157,0.259,0.243,0.238,0.140,0.084,-,CALM,No
2020/11/26,02:30,0.173,0.156,0.257,0.243,0.238,0.141,0.084,-,CALM,No
2020/11/26,02:40,0.175,0.157,0.257,0.243,0.238,0.141,0.085,west,1.0,No
2020/11/26,02:50,0.174,0.156,0.257,0.243,0.239,0.141,0.085,west,1.5,No
2020/11/26,03:00,0.174,0.157,0.257,0.244,0.238,0.140,0.085,west-northwest,2.8,No
2020/11/26,03:10,0.175,0.157,0.259,0.243,0.239,0.141,0.084,northwest,3.3,No
2020/11/26,03:20,0.175,0.155,0.257,0.244,0.239,0.140,0.085,northwest,1.9,No
2020/11/26,03:30,0.175,0.156,0.258,0.243,0.238,0.140,0.084,northeast,1.2,No
2020/11/26,03:40,0.175,0.157,0.257,0.244,0.238,0.140,0.085,-,CALM,No
2020/11/26,03:50,0.175,0.156,0.257,0.242,0.239,0.140,0.084,northwest,1.4,No
2020/11/26,04:00,0.175,0.156,0.258,0.244,0.238,0.140,0.084,west-northwest,2.4,No
2020/11/26,04:10,0.175,0.156,0.257,0.242,0.238,0.140,0.084,west-northwest,3.4,No
2020/11/26,04:20,0.175,0.157,0.256,0.243,0.238,0.140,0.084,west,3.9,No
2020/11/26,04:30,0.174,0.157,0.257,0.243,0.240,0.139,0.084,west,2.7,No
2020/11/26,04:40,0.175,0.157,0.257,0.244,0.238,0.139,0.084,west-northwest,1.5,No
2020/11/26,04:50,0.175,0.157,0.256,0.243,0.239,0.140,0.085,north,1.7,No
2020/11/26,05:00,0.175,0.157,0.257,0.244,0.239,0.140,0.085,north-northwest,1.3,No
2020/11/26,05:10,0.176,0.157,0.258,0.242,0.238,0.140,0.084,north,1.7,No
2020/11/26,05:20,0.175,0.157,0.258,0.243,0.239,0.141,0.085,north-northeast,1.3,No
2020/11/26,05:30,0.175,0.157,0.257,0.242,0.238,0.140,0.085,north,1.0,No
2020/11/26,05:40,0.175,0.156,0.257,0.244,0.238,0.141,0.083,north-northwest,1.5,No
2020/11/26,05:50,0.176,0.155,0.256,0.243,0.238,0.141,0.085,northwest,1.6,No
2020/11/26,06:00,0.175,0.156,0.258,0.243,0.240,0.140,0.085,north-northwest,2.5,No
2020/11/26,06:10,0.174,0.156,0.257,0.244,0.239,0.140,0.084,northwest,2.7,No
2020/11/26,06:20,0.174,0.156,0.257,0.241,0.237,0.140,0.084,west-northwest,3.0,No
2020/11/26,06:30,0.175,0.156,0.256,0.242,0.238,0.141,0.084,west-northwest,2.5,No
2020/11/26,06:40,0.175,0.156,0.257,0.243,0.238,0.140,0.084,west,2.6,No
2020/11/26,06:50,0.174,0.157,0.256,0.243,0.237,0.139,0.084,west,2.2,No
2020/11/26,07:00,0.174,0.156,0.256,0.242,0.237,0.140,0.085,west-southwest,2.8,No
2020/11/26,07:10,0.175,0.156,0.256,0.243,0.238,0.139,0.084,west,5.6,No
2020/11/26,07:20,0.174,0.156,0.258,0.242,0.237,0.139,0.084,west-northwest,7.6,No
2020/11/26,07:30,0.174,0.155,0.255,0.243,0.237,0.139,0.084,west,8.4,No
2020/11/26,07:40,0.174,0.156,0.257,0.243,0.237,0.140,0.083,west-northwest,10.4,No
2020/11/26,07:50,0.175,0.157,0.256,0.242,0.238,0.140,0.082,west,11.8,No
2020/11/26,08:00,0.174,0.157,0.257,0.243,0.238,0.140,0.083,west,10.4,No
2020/11/26,08:10,0.174,0.156,0.256,0.243,0.238,0.140,0.084,west,9.8,No
2020/11/26,08:20,0.175,0.156,0.257,0.242,0.237,0.139,0.084,west-northwest,9.5,No
2020/11/26,08:30,0.173,0.156,0.257,0.241,0.238,0.140,0.083,west-northwest,10.9,No
2020/11/26,08:40,0.174,0.155,0.255,0.243,0.237,0.138,0.083,west-northwest,11.2,No
2020/11/26,08:50,0.174,0.156,0.256,0.241,0.238,0.140,0.084,west,10.9,No
2020/11/26,09:00,0.174,0.157,0.256,0.242,0.238,0.139,0.084,west-northwest,10.6,No
2020/11/26,09:10,0.174,0.155,0.256,0.240,0.238,0.139,0.084,west-northwest,8.7,No
2020/11/26,09:20,0.175,0.157,0.256,0.243,0.238,0.140,0.084,west-northwest,9.5,No
2020/11/26,09:30,0.174,0.155,0.257,0.240,0.236,0.140,0.084,west-northwest,8.4,No
2020/11/26,09:40,0.174,0.156,0.256,0.243,0.238,0.140,0.083,west-northwest,7.7,No
2020/11/26,09:50,0.174,0.155,0.258,0.242,0.237,0.140,0.084,west,6.1,No
2020/11/26,10:00,0.175,0.156,0.256,0.244,0.240,0.140,0.084,west-northwest,3.4,No
2020/11/26,10:10,0.174,0.156,0.257,0.241,0.238,0.141,0.084,northwest,3.5,No
2020/11/26,10:20,0.173,0.157,0.255,0.244,0.237,0.139,0.084,west-northwest,5.5,No
2020/11/26,10:30,0.175,0.156,0.256,0.241,0.237,0.141,0.084,west,4.3,No
2020/11/26,10:40,0.172,0.156,0.257,0.244,0.237,0.139,0.084,west,4.9,No
2020/11/26,10:50,0.176,0.156,0.257,0.242,0.239,0.140,0.083,west-northwest,5.4,No
2020/11/26,11:00,0.174,0.156,0.256,0.245,0.236,0.140,0.085,west-northwest,6.7,No
2020/11/26,11:10,0.176,0.156,0.257,0.242,0.238,0.141,0.084,west,8.2,No
2020/11/26,11:20,0.175,0.155,0.256,0.244,0.239,0.140,0.084,west,7.8,No
2020/11/26,11:30,0.174,0.157,0.257,0.243,0.237,0.140,0.084,west,6.3,No
2020/11/26,11:40,0.175,0.157,0.257,0.244,0.240,0.141,0.084,west,5.9,No
2020/11/26,11:50,0.175,0.157,0.257,0.243,0.237,0.139,0.084,west,6.0,No
2020/11/26,12:00,0.175,0.157,0.257,0.245,0.240,0.142,0.084,west-northwest,6.0,No
2020/11/26,12:10,0.175,0.157,0.258,0.242,0.238,0.141,0.084,west,7.9,No
2020/11/26,12:20,0.176,0.157,0.259,0.245,0.237,0.140,0.084,west,7.4,No
2020/11/26,12:30,0.176,0.156,0.256,0.244,0.239,0.141,0.084,west,6.3,No
2020/11/26,12:40,0.175,0.156,0.258,0.242,0.237,0.141,0.084,west,7.7,No
2020/11/26,12:50,0.176,0.157,0.257,0.244,0.240,0.141,0.084,west,6.2,No
2020/11/26,13:00,0.174,0.157,0.259,0.242,0.238,0.142,0.084,west,5.2,No
2020/11/26,13:10,0.177,0.158,0.258,0.245,0.241,0.141,0.084,west,4.5,No
2020/11/26,13:20,0.174,0.158,0.259,0.244,0.237,0.141,0.084,west,2.7,No
2020/11/26,13:30,0.176,0.158,0.256,0.245,0.240,0.141,0.084,northwest,1.6,No
2020/11/26,13:40,0.174,0.157,0.259,0.243,0.239,0.141,0.084,west-northwest,2.4,No
2020/11/26,13:50,0.176,0.158,0.257,0.244,0.238,-,0.084,north-northwest,4.0,No
2020/11/26,14:00,0.176,0.158,0.259,0.241,0.239,-,0.084,north-northwest,5.7,No
2020/11/26,14:10,0.175,0.157,0.257,0.245,0.237,-,0.084,northwest,5.2,No
2020/11/26,14:20,0.175,0.156,0.259,0.243,0.241,-,0.085,northwest,7.3,No
2020/11/26,14:30,0.177,0.158,0.257,0.245,0.238,-,0.085,northwest,4.7,No
2020/11/26,14:40,0.175,0.157,0.258,0.244,0.240,-,0.084,west-northwest,4.1,No
2020/11/26,14:50,0.177,0.158,0.258,0.245,0.239,0.139,0.084,west-northwest,2.7,No
2020/11/26,15:00,0.175,0.157,0.258,0.245,0.241,0.139,0.085,northwest,2.4,No
2020/11/26,15:10,0.176,0.157,0.259,0.246,0.239,0.140,0.084,northwest,2.7,No
2020/11/26,15:20,0.175,0.156,0.258,0.244,0.241,0.139,0.084,north-northwest,4.7,No
2020/11/26,15:30,0.176,0.157,0.260,0.244,0.238,0.139,0.084,north-northwest,4.7,No
2020/11/26,15:40,0.177,0.158,0.259,0.245,0.241,0.140,0.085,north-northwest,4.2,No
2020/11/26,15:50,0.175,0.157,0.258,0.244,0.239,0.139,0.085,north-northwest,3.3,No
2020/11/26,16:00,0.175,0.158,0.260,0.245,0.240,0.139,0.085,north-northwest,4.7,No
2020/11/26,16:10,0.176,0.157,0.259,0.244,0.239,0.139,0.084,north-northwest,4.3,No
2020/11/26,16:20,0.176,0.157,0.259,0.245,0.240,0.139,0.084,north,5.5,No
2020/11/26,16:30,0.177,0.158,0.258,0.245,0.241,0.139,0.085,north,5.4,No
2020/11/26,16:40,0.177,0.157,0.259,0.244,0.240,0.141,0.084,north-northwest,6.0,No
2020/11/26,16:50,0.177,0.157,0.259,0.245,0.241,0.139,0.085,north-northwest,6.3,No
2020/11/26,17:00,0.176,0.158,0.258,0.245,0.240,0.140,0.084,north-northwest,4.4,No
2020/11/26,17:10,0.176,0.157,0.259,0.246,0.239,0.140,0.084,north-northwest,4.2,No
2020/11/26,17:20,0.175,0.159,0.260,0.246,0.241,0.141,0.086,north-northwest,4.8,No
2020/11/26,17:30,0.175,0.158,0.258,0.246,0.239,0.141,0.085,north-northwest,3.9,No
2020/11/26,17:40,0.176,0.157,0.258,0.246,0.241,0.141,0.085,northwest,3.4,No
2020/11/26,17:50,0.176,0.158,0.259,0.247,0.240,0.140,0.085,north-northwest,3.7,No
2020/11/26,18:00,0.176,0.158,0.258,0.246,0.241,0.140,0.085,northwest,4.1,No
2020/11/26,18:10,0.176,0.157,0.260,0.244,0.241,0.141,0.084,northwest,4.1,No
2020/11/26,18:20,0.175,0.157,0.260,0.244,0.239,0.140,0.084,west-northwest,4.2,No
2020/11/26,18:30,0.176,0.157,0.259,0.245,0.238,0.139,0.084,west-northwest,5.0,No
2020/11/26,18:40,0.177,0.158,0.260,0.244,0.241,0.139,0.084,northwest,4.3,No
2020/11/26,18:50,0.176,0.157,0.258,0.245,0.240,0.139,0.084,west-northwest,3.6,No
2020/11/26,19:00,0.176,0.157,0.258,0.244,0.239,0.140,0.085,west-northwest,1.9,No
2020/11/26,19:10,0.176,0.158,0.259,0.246,0.239,0.140,0.084,west-northwest,1.1,No
2020/11/26,19:20,0.175,0.157,0.259,0.246,0.239,0.140,0.084,north-northwest,0.6,No
2020/11/26,19:30,0.176,0.157,0.259,0.245,0.241,0.140,0.084,north,2.7,No
2020/11/26,19:40,0.176,0.158,0.260,0.245,0.239,0.139,0.085,north,3.6,No
2020/11/26,19:50,0.176,0.158,0.259,0.245,0.238,0.140,0.085,north,4.0,No
2020/11/26,20:00,0.177,0.159,0.258,0.244,0.241,0.141,0.085,north,3.7,No
2020/11/26,20:10,0.176,0.158,0.259,0.245,0.238,0.140,0.084,north,4.1,No
2020/11/26,20:20,0.175,0.156,0.259,0.244,0.240,0.140,0.085,north,3.4,No
2020/11/26,20:30,0.177,0.158,0.259,0.245,0.240,0.139,0.085,north,3.6,No
2020/11/26,20:40,0.176,0.158,0.259,0.245,0.240,0.140,0.085,north,3.2,No
2020/11/26,20:50,0.175,0.158,0.258,0.246,0.241,0.140,0.085,north,3.2,No
2020/11/26,21:00,0.176,0.158,0.258,0.246,0.240,0.139,0.085,north,2.0,No
2020/11/26,21:10,0.176,0.157,0.259,0.246,0.239,0.140,0.085,north,3.4,No
2020/11/26,21:20,0.176,0.158,0.260,0.246,0.241,0.139,0.085,north,4.0,No
2020/11/26,21:30,0.177,0.157,0.259,0.246,0.240,0.140,0.085,north,4.0,No
2020/11/26,21:40,0.175,0.157,0.259,0.245,0.240,0.139,0.085,north,4.5,No
2020/11/26,21:50,0.177,0.158,0.259,0.244,0.240,0.141,0.084,north,3.8,No
2020/11/26,22:00,0.176,0.158,0.258,0.245,0.241,0.140,0.085,north,3.9,No
2020/11/26,22:10,0.176,0.158,0.258,0.244,0.241,0.140,0.085,north-northwest,4.0,No
2020/11/26,22:20,0.177,0.158,0.259,0.244,0.239,0.140,0.085,north-northwest,2.9,No
2020/11/26,22:30,0.175,0.158,0.258,0.246,0.240,0.140,0.084,north,2.4,No
2020/11/26,22:40,0.175,0.157,0.260,0.245,0.241,0.140,0.084,northwest,1.3,No
2020/11/26,22:50,0.177,0.159,0.259,0.246,0.240,0.140,0.085,north,2.9,No
2020/11/26,23:00,0.177,0.157,0.258,0.246,0.241,0.139,0.084,north-northeast,2.8,No
2020/11/26,23:10,0.177,0.159,0.260,0.244,0.240,0.140,0.085,north,1.0,No
2020/11/26,23:20,0.177,0.158,0.259,0.246,0.240,0.139,0.084,-,CALM,No
2020/11/26,23:30,0.176,0.158,0.260,0.245,0.241,0.140,0.085,north,2.9,No
2020/11/26,23:40,0.176,0.158,0.259,0.245,0.240,0.140,0.085,north,5.0,No
2020/11/26,23:50,0.177,0.157,0.259,0.247,0.240,0.141,0.085,north,5.5,No
